weather.gov     
National Weather Service

Regional Weather Roundup
NWS Homepage
This page is being discontinued on March 12, 2014.
The same data is available at this site. Please update your bookmarks.
Thank you, and we apologize for the inconvenience.
Please send an email to SR-SRH.Webmaster@noaa.gov with any concerns.


Current Version
Previous Version:    01  02  03  04  05  06  07  08  09  10  11  12  13  14  15  16  17  18  19  20  21  22  23  24  25  26  
[Printable]
814
ASUS44 KHUN 211510
RWRHUN

WEATHER ROUNDUP FOR THE TENNESSEE VALLEY
NATIONAL WEATHER SERVICE HUNTSVILLE AL
1000 AM CDT TUE OCT 21 2014

ALZ001>004-211600-
NORTHWEST ALABAMA

CITY           SKY/WX    TMP DP  RH WIND       PRES   REMARKS
COURTLAND HCN    N/A     59 N/A N/A NW5         N/A
RUSSELLVILLE     N/A     59 N/A N/A MISG        N/A
SHOALS AIRPORT SUNNY     62  54  74 CALM      30.10R
SHOALS TVA RES   N/A     59 N/A N/A MISG        N/A
$$

ALZ005>007-016-211600-
NORTH CENTRAL ALABAMA

CITY           SKY/WX    TMP DP  RH WIND       PRES   REMARKS
DECATUR AP     SUNNY     63  54  72 CALM      30.08S
HUNTSVILLE AP  SUNNY     63  53  70 CALM      30.08R
MERIDIANVILLE  SUNNY     61  50  67 N3        30.08R
REDSTONE ARSN  SUNNY     64  54  68 CALM      30.08R
VINEMONT AP    FAIR      62  53  72 NW6       30.10R
$$

ALZ008>010-211600-
NORTHEAST ALABAMA

CITY           SKY/WX    TMP DP  RH WIND       PRES   REMARKS
ALBERTVILLE    SUNNY     61  57  88 NW5       30.07R
FORT PAYNE     SUNNY     59  48  67 CALM      30.05F
SCOTTSBORO AP  CLOUDY    55  55 100 CALM      30.08S FOG
SCOTTSBORO HCN   N/A     54 N/A N/A MISG        N/A
VALLEY HEAD      N/A     57 N/A N/A MISG        N/A
$$

TNZ076-096-097-211600-
SOUTHEASTERN MIDDLE TENNESSEE

CITY           SKY/WX    TMP DP  RH WIND       PRES   REMARKS
TULLAHOMA      SUNNY     61  52  72 VRB5      30.08S
WINCHESTER     SUNNY     61  52  72 CALM      30.08R
$$

...SURROUNDING SITES...

CITY           SKY/WX    TMP DP  RH WIND       PRES   REMARKS
ATLANTA        SUNNY     65  52  62 NW8       30.04S
ANNISTON       SUNNY     62  53  72 SW5       30.07S
BIRMINGHAM     SUNNY     64  52  64 CALM      30.10S
CHATTANOOGA    SUNNY     63  54  72 CALM      30.05S
CORINTH        FAIR      61  55  82 CALM      30.09S
DALTON         PTSUNNY   52  52 100 CALM      30.06S
GADSDEN        SUNNY     61  50  67 CALM      30.07S
GOLDEN TRNGL   SUNNY     66  54  63 NW3       30.10R
HALEYVILLE     FAIR      62  56  81 N5        30.11S
JACKSON TN     SUNNY     64  53  67 CALM      30.10R
MEMPHIS        SUNNY     68  52  56 CALM      30.11R
NASHVILLE      SUNNY     63  51  65 CALM      30.08R
OXFORD MS      FAIR      63  55  77 CALM      30.11S
ROME           SUNNY     61  54  77 CALM      30.05S
SAVANNAH       SUNNY     61  57  88 CALM      30.10R
TUPELO         SUNNY     63  55  75 NE6       30.09S
TUSCALOOSA     SUNNY     62  52  69 CALM      30.10S
$$

...GULF COAST WEATHER...

CITY           SKY/WX    TMP DP  RH WIND       PRES   REMARKS
GULFPORT       SUNNY     69  53  56 NE7       30.06S
PASCAGOULA     SUNNY     69  53  56 NE7       30.07S
MOBILE         SUNNY     69  53  56 N8        30.07S
GULF SHORES    SUNNY     69  55  60 NE8       30.05S
PENSACOLA      MOSUNNY   71  54  54 NE10      30.04S
DESTIN         SUNNY     71  55  56 N7        30.04S
PANAMA CITY    SUNNY     71  59  64 N8        30.02S
APPALACHICOLA  MOSUNNY   75  59  57 NE9       30.01S
$$





U.S. Dept. of Commerce
NOAA National Weather Service
1325 East West Highway
Silver Spring, MD 20910
E-mail: w-nws.webmaster@noaa.gov
Page last modified: May 16, 2007
NATIONAL WEATHER SERVICE: for Safety, for Work, for Fun - FOR LIFE